Theta_e
309 309 309 309 309 309 309 309 309 309 310 310 311 312 312 312 312 313 313 325 315 309 312 312 309 306 306 305 302 306 304 306 304 298 298 296 295 297 295 298 295 293 292 292 293 290 285 302 300 294 300 303 302 301
308 309 308 309 309 309 309 309 309 309 310 310 311 311 312 312 311 311 310 320 320 312 311 319 316 315 313 310 308 309 304 304 305 300 300 301 295 299 298 292 300 294 298 294 295 296 301 304 302 306 304 302 301 303
308 309 308 308 309 309 309 309 309 309 310 310 311 311 312 312 311 310 313 313 311 310 309 309 309 315 318 316 316 306 309 309 309 313 304 301 296 299 295 296 298 301 302 299 297 301 301 303 305 305 306 304 306 305
308 308 308 308 308 308 309 309 309 309 309 310 310 311 312 311 310 308 315 315 313 310 303 307 318 313 318 318 316 316 314 318 317 310 304 301 298 305 299 300 298 301 302 300 299 301 303 303 304 305 306 306 305 305
307 308 308 308 308 308 308 309 309 309 309 310 311 311 311 311 310 311 318 319 318 311 304 305 312 312 317 317 315 316 316 315 309 305 304 301 304 303 303 302 299 304 302 299 297 303 303 303 306 307 305 304 305 305
307 307 308 308 308 308 308 308 308 309 309 310 311 311 310 309 308 314 312 321 321 319 308 302 313 311 314 315 315 314 314 314 311 306 303 305 309 306 299 296 304 306 306 309 304 307 305 307 307 307 306 306 306 305
307 307 307 308 308 308 308 308 309 309 309 309 309 309 309 310 312 310 310 315 312 321 309 303 305 312 314 315 314 313 315 312 310 307 305 304 304 305 302 301 305 307 307 309 309 308 305 306 305 307 307 308 306 307
307 307 307 308 308 308 308 308 309 309 309 309 309 309 310 309 308 309 317 315 314 315 312 303 304 307 315 308 306 311 309 309 309 306 308 304 305 304 301 305 307 307 306 306 307 308 307 308 308 306 307 307 305 305
307 307 307 307 308 308 308 308 308 308 308 308 309 308 315 314 315 314 311 311 319 314 306 306 302 300 311 308 309 309 310 302 309 305 303 304 303 300 303 305 305 307 306 307 307 307 306 305 305 305 306 306 305 305
307 307 307 307 308 308 308 308 308 308 308 309 313 313 310 314 308 314 316 313 313 312 311 304 307 302 307 307 305 305 306 302 298 302 308 303 302 307 309 310 310 309 309 308 305 302 303 302 303 305 306 307 307 306
308 307 307 308 308 308 308 308 308 307 311 313 309 310 313 313 312 311 308 306 308 305 309 308 308 305 311 303 301 305 301 301 295 301 299 298 299 305 309 310 310 309 309 308 308 307 307 307 305 305 307 306 308 308
308 307 307 307 307 308 308 308 307 311 311 307 305 308 314 316 312 305 304 307 304 302 307 305 306 307 308 312 304 305 299 300 293 304 298 296 302 306 307 307 307 309 309 309 309 308 308 307 308 309 307 308 308 309
308 307 307 307 307 308 307 308 307 307 308 312 307 310 312 308 297 298 295 299 300 303 306 306 304 307 308 308 304 303 296 296 304 296 295 299 305 307 308 307 308 309 309 309 308 308 308 307 308 309 308 308 310 306
307 307 307 307 307 307 308 308 307 309 310 307 303 294 301 301 303 303 303 303 307 306 306 306 305 306 306 304 302 295 300 299 293 292 294 301 306 307 307 308 308 308 308 307 307 307 306 306 306 308 310 311 307 302
307 306 306 308 308 308 308 307 307 312 310 304 304 293 301 306 307 307 308 306 307 308 306 304 303 302 302 298 300 297 293 291 294 294 298 304 305 306 306 306 306 305 306 308 308 307 307 307 307 307 310 309 311 310
306 306 314 308 308 307 307 310 315 315 308 304 303 301 305 304 304 305 305 304 308 308 307 305 300 298 298 299 294 292 291 290 292 293 298 300 300 301 303 305 306 306 305 307 309 308 309 307 307 308 310 310 310 310
305 313 309 308 307 306 308 311 313 308 308 304 306 310 308 306 304 305 307 305 310 306 300 302 295 294 299 293 291 294 286 288 293 296 298 299 299 300 302 303 305 305 305 305 307 309 308 309 309 309 309 309 309 310
311 316 311 308 307 310 314 314 309 305 302 307 305 306 308 308 306 306 308 309 307 304 303 298 301 294 289 286 288 291 294 298 300 300 301 301 301 302 301 301 303 305 305 306 308 307 309 308 308 308 310 310 309 310
311 311 308 305 306 307 308 310 312 303 305 307 308 308 308 307 309 309 309 310 313 312 308 302 293 291 291 294 294 298 299 297 296 299 301 302 303 302 302 302 303 305 306 307 308 307 308 309 309 308 308 308 308 307
305 305 305 306 304 309 306 308 314 305 302 306 306 305 306 306 308 309 308 309 308 308 301 295 293 298 298 301 301 300 300 302 301 299 300 302 304 302 300 298 301 304 305 306 307 301 308 308 308 310 309 307 307 308
308 312 307 310 313 311 309 308 307 308 307 305 307 307 306 307 306 305 306 308 305 299 297 303 303 304 306 306 306 303 302 300 297 298 298 296 298 301 300 300 302 303 304 305 306 304 303 306 307 308 309 308 310 307
312 307 312 313 308 308 307 310 307 309 306 306 306 306 304 303 305 305 306 304 301 303 302 302 305 305 302 302 302 301 300 297 297 297 296 297 297 297 298 301 301 300 301 303 305 307 307 309 309 309 311 311 307 308
308 309 309 307 302 301 298 311 305 306 302 303 304 301 303 303 305 309 298 306 306 308 309 307 305 305 302 303 302 299 298 296 294 295 297 296 299 298 298 302 301 300 301 304 305 306 309 301 307 309 309 309 311 311
303 305 302 301 301 297 306 305 308 304 304 302 301 299 301 303 306 307 299 303 306 308 305 305 304 301 301 301 297 298 296 297 296 296 297 295 294 296 299 299 300 297 297 301 302 304 305 309 303 309 308 309 308 305
296 298 299 289 304 301 300 301 302 301 298 300 299 299 301 305 298 298 300 302 305 303 305 305 303 300 298 297 297 297 298 297 295 294 295 296 296 297 296 297 297 297 297 295 297 300 302 302 302 299 302 302 298 297
292 300 294 301 302 300 301 297 297 297 300 299 300 304 305 300 297 296 302 305 306 307 305 303 301 299 298 298 298 296 296 297 296 294 295 296 296 294 293 293 292 293 297 297 298 295 294 293 293 293 293 290 287 290
292 298 303 308 305 305 302 303 304 302 298 298 302 299 300 295 295 303 309 311 310 309 309 307 302 300 299 298 300 298 298 297 296 296 298 299 299 298 295 292 290 292 293 296 297 296 294 292 291 291 291 292 292 292
297 301 298 302 302 303 298 300 300 299 301 306 303 296 296 298 301 309 310 312 312 312 310 307 305 304 300 300 301 299 297 296 297 298 299 299 298 297 296 297 296 288 293 292 295 295 294 294 294 293 293 294 294 295
299 302 300 296 298 299 300 300 301 305 309 307 300 298 300 306 315 313 312 312 311 309 307 305 302 304 302 300 300 300 301 299 294 291 292 293 292 294 296 296 296 296 297 296 286 291 295 294 294 296 295 294 294 294
299 303 298 298 298 298 303 307 306 309 310 310 309 308 307 310 315 315 313 311 308 307 308 305 302 302 299 299 297 297 298 299 296 293 291 291 293 297 298 299 298 299 298 295 295 294 287 292 291 296 294 294 294 294
304 302 298 300 300 304 307 309 311 311 310 309 309 306 305 308 312 313 312 311 310 308 305 301 300 301 300 298 298 298 294 297 298 298 298 299 298 297 297 297 298 298 297 297 296 296 295 294 294 293 292 292 291 290
302 299 298 298 301 307 309 307 307 307 307 307 306 308 309 307 304 308 310 310 308 305 294 299 299 298 299 299 297 296 287 295 295 295 296 297 297 297 297 297 297 296 296 295 295 294 294 293 292 292 291 290 290 290
301 303 303 301 301 302 305 305 304 304 305 305 305 306 304 304 301 308 311 312 309 307 303 302 302 300 300 298 298 296 293 294 288 283 285 284 283 288 296 296 296 295 294 294 293 293 292 291 291 291 290 290 289 289
Wind_Speed
18 19 20 20 21 21 22 22 22 21 21 21 20 19 18 17 16 9 6 3 6 8 2 5 4 6 5 5 8 6 7 6 8 7 4 6 6 6 5 11 3 7 7 8 5 8 3 10 5 6 4 4 4 5
18 19 19 20 20 21 21 21 21 21 22 22 21 20 18 16 14 10 9 3 3 7 10 4 8 7 7 5 6 4 3 2 6 7 5 4 9 7 11 8 4 5 2 5 5 5 3 3 3 1 3 3 2 9
18 19 20 20 20 21 21 21 22 23 23 22 22 21 18 15 12 7 7 7 6 9 10 10 11 12 9 6 5 5 3 4 2 3 7 8 8 8 9 10 9 10 2 7 7 3 4 5 4 5 4 3 7 3
17 19 19 20 21 21 22 22 23 24 25 23 22 21 18 15 12 7 8 4 5 6 6 1 6 6 8 9 10 9 9 3 5 7 9 9 10 7 10 10 9 12 3 12 11 11 8 8 7 5 6 7 3 2
17 18 19 20 21 22 23 24 24 25 27 25 23 22 19 15 10 10 9 7 5 7 8 8 3 9 10 10 13 11 11 9 9 9 7 11 12 11 11 11 10 9 7 9 10 5 3 7 2 7 8 5 6 6
17 19 20 20 21 23 24 25 25 25 29 28 24 24 20 13 8 7 6 6 4 3 6 5 5 5 10 11 12 13 10 9 9 10 9 9 15 7 9 13 12 6 5 14 10 6 5 8 2 7 9 10 8 7
17 19 20 21 21 22 24 25 25 27 30 31 25 25 19 8 7 4 7 6 7 4 6 6 4 7 6 9 9 10 11 8 10 10 12 12 12 5 10 11 18 16 13 10 7 7 9 10 9 9 10 9 7 8
17 19 20 21 21 22 24 25 26 28 32 32 26 19 12 3 8 5 4 2 5 7 5 5 6 5 8 7 8 4 9 7 7 8 10 8 7 5 6 12 11 9 6 8 8 8 10 7 10 11 12 10 8 9
18 19 20 21 22 22 23 24 26 29 33 34 24 9 5 5 3 6 5 4 4 6 7 4 8 5 6 5 5 3 4 8 4 6 10 6 7 7 9 10 10 8 7 9 8 9 10 10 10 12 10 10 10 10
18 20 21 21 22 23 22 22 24 29 35 31 9 6 2 6 3 5 5 6 7 6 5 8 9 11 6 5 4 4 3 4 6 6 4 5 7 16 16 14 8 8 11 10 12 11 12 12 13 13 13 11 11 10
18 20 22 22 22 23 22 21 21 30 18 9 7 4 7 5 5 5 4 4 4 5 6 6 6 9 2 7 5 2 3 5 5 3 4 5 6 7 7 12 9 9 9 10 12 11 9 13 13 11 11 5 13 11
19 20 22 23 22 23 21 18 20 14 9 10 7 7 6 6 3 5 3 1 5 5 3 4 6 7 4 1 5 1 4 4 6 4 4 4 4 4 8 8 8 8 10 10 12 13 13 13 14 16 13 15 10 11
19 21 23 24 23 23 18 19 17 15 16 4 5 6 3 1 4 4 6 7 6 7 6 6 6 4 6 2 3 2 4 6 6 4 4 5 4 5 8 6 7 7 9 10 11 12 15 15 15 15 16 8 12 11
19 22 25 25 21 16 21 23 20 14 6 5 4 4 4 4 2 8 10 10 10 10 11 9 9 7 5 4 1 5 2 5 5 5 4 8 14 6 4 7 9 10 10 10 11 11 13 16 13 13 11 18 12 13
19 22 27 19 11 21 27 27 22 6 5 5 3 4 4 6 8 7 9 8 8 8 8 9 10 9 4 4 2 3 3 5 5 3 5 9 14 18 18 18 17 16 17 20 11 10 12 13 14 12 12 8 17 12
18 23 2 9 20 26 31 21 6 4 4 4 5 6 4 6 8 8 8 8 8 8 8 6 6 5 3 3 4 5 4 2 10 10 12 14 18 16 15 15 16 16 16 17 20 12 13 12 12 13 13 9 9 9
17 7 16 15 22 29 24 5 4 5 5 4 4 4 5 6 8 8 8 7 5 7 7 5 4 3 5 3 4 7 4 6 10 10 9 13 14 16 16 16 12 13 14 14 19 15 11 11 10 8 12 10 12 10
9 15 17 20 20 16 6 4 4 5 6 5 5 7 6 5 7 8 8 6 6 5 7 1 3 6 6 4 4 4 8 8 8 9 8 12 14 14 13 16 16 13 12 11 17 10 10 10 6 8 8 8 10 18
15 16 23 21 8 6 5 4 2 5 5 6 5 5 6 6 6 6 7 5 2 4 4 5 3 2 2 3 7 9 8 7 11 10 9 11 13 12 13 15 14 12 9 12 12 10 8 4 3 4 4 8 12 6
21 23 19 9 5 5 6 4 1 5 5 5 5 6 7 6 5 5 4 5 6 4 5 2 2 4 4 7 5 5 6 10 11 13 13 13 12 15 9 10 10 10 6 8 11 15 10 7 5 6 4 5 6 10
16 1 7 6 6 7 6 4 5 4 5 5 6 7 6 5 4 3 5 4 6 3 2 3 5 6 7 8 9 10 12 14 14 15 11 11 12 11 7 7 10 9 7 6 8 6 13 4 4 5 8 11 8 9
5 3 6 2 5 4 5 5 5 6 4 5 6 5 5 5 3 4 6 5 2 3 1 4 7 9 7 10 10 13 14 15 14 13 14 13 9 11 12 7 6 7 8 8 7 7 9 10 6 6 4 5 5 1
10 5 5 4 4 3 7 5 5 4 5 4 5 4 4 3 3 8 4 2 1 2 4 6 8 6 9 10 11 11 12 14 10 10 10 10 11 10 11 12 11 12 11 10 11 8 8 9 9 9 2 4 2 4
2 4 5 4 7 5 4 5 4 4 4 5 4 7 4 3 4 2 3 2 2 2 4 7 7 6 5 8 7 9 9 9 9 9 9 10 9 10 10 10 10 10 10 12 11 12 11 11 11 9 7 5 10 10
4 5 4 6 6 5 6 5 6 5 7 7 12 6 3 3 2 0 1 0 3 3 5 7 6 6 7 7 6 8 10 8 7 8 7 8 9 8 10 11 11 9 10 10 11 11 11 13 14 17 16 15 16 17
5 6 6 5 4 6 4 5 4 5 7 7 5 2 2 2 3 2 2 1 3 3 2 5 6 5 5 5 8 8 8 7 7 5 6 7 8 8 9 11 11 12 13 11 11 12 13 13 15 19 17 18 18 17
6 7 7 5 5 5 5 6 7 5 6 5 3 2 3 3 3 3 3 2 0 2 1 3 4 4 5 6 7 6 6 6 5 3 4 6 6 8 8 9 11 9 9 12 12 12 12 13 13 13 13 12 13 12
7 6 11 9 8 5 9 9 11 7 5 3 0 2 3 2 1 3 3 3 3 2 1 3 2 2 5 4 5 6 5 5 4 3 2 6 9 9 9 8 8 8 9 10 11 11 11 12 12 13 13 13 12 11
6 7 6 11 12 4 7 10 9 5 3 3 3 2 3 1 2 2 4 4 5 4 3 2 5 1 2 4 4 5 5 6 8 10 12 9 8 7 6 7 7 6 6 12 13 13 15 12 12 13 15 11 11 9
10 9 7 8 12 9 8 7 6 5 4 4 3 4 6 3 2 3 4 5 5 4 2 2 3 1 3 2 5 5 6 7 7 4 5 6 3 3 3 4 6 4 6 8 8 8 4 7 5 8 10 9 7 8
4 8 10 12 10 11 11 10 7 7 7 7 7 8 7 4 4 4 4 4 4 5 5 5 4 3 3 3 2 2 6 6 7 6 2 3 7 7 7 7 7 8 8 9 9 9 9 10 10 12 12 12 12 10
8 9 7 10 11 10 8 7 8 9 9 8 7 6 3 4 7 6 5 6 7 6 2 3 6 6 4 6 7 6 4 6 6 6 9 7 7 6 6 7 7 7 8 9 9 9 10 10 9 9 10 12 11 11
13 11 13 11 10 12 10 8 6 6 6 7 6 5 5 6 7 4 5 7 6 6 7 6 6 7 6 6 8 7 7 9 8 6 5 6 7 10 5 6 6 6 8 7 8 8 9 10 9 10 10 10 10 10
Wind_Direction
349 347 347 346 348 348 348 346 342 337 333 336 340 339 341 341 344 335 315 47 320 306 275 213 233 246 209 235 290 64 247 203 267 309 320 356 272 349 268 292 301 302 311 304 338 303 295 40 308 340 343 6 26 325
348 344 342 343 344 345 344 341 336 332 333 333 332 333 334 333 332 330 278 157 299 265 305 347 284 249 269 306 312 151 353 251 9 300 335 313 309 258 276 287 202 277 324 310 292 262 329 295 279 195 245 194 302 289
343 341 338 339 340 340 340 337 332 330 331 330 328 328 328 325 320 311 302 324 271 258 259 211 219 219 228 229 230 278 84 4 196 322 305 300 312 293 287 300 310 278 327 259 294 236 217 246 223 246 215 284 265 16
339 336 334 336 337 338 335 334 333 328 327 330 327 325 325 319 308 293 269 311 277 279 280 143 139 213 193 213 214 235 273 255 288 264 283 292 274 249 274 271 269 278 176 263 279 264 239 199 222 269 207 228 257 236
332 331 332 333 334 333 332 334 332 326 324 327 328 325 321 312 294 271 264 264 248 293 319 320 257 235 184 211 220 223 240 245 258 257 224 257 261 283 278 281 275 289 265 256 274 359 305 299 159 203 235 216 232 222
329 329 330 330 331 330 331 332 328 322 324 324 329 325 321 304 270 247 224 186 203 255 286 286 88 171 209 217 226 232 231 231 249 266 276 288 286 248 277 275 281 267 254 267 266 287 303 285 227 233 209 226 209 231
325 327 327 327 328 330 330 330 325 324 322 321 328 322 320 289 229 289 13 18 343 289 259 277 267 143 197 199 225 231 226 241 255 273 283 278 279 214 260 266 278 283 271 245 235 244 242 238 235 213 212 216 187 260
322 323 324 324 327 329 329 328 324 323 320 318 323 320 320 173 267 217 123 22 318 264 262 270 273 191 173 236 228 220 252 230 222 251 271 270 277 248 254 256 261 241 275 273 243 222 247 275 201 213 205 211 232 244
318 319 320 322 324 327 329 326 324 322 317 314 315 317 237 228 248 50 329 261 230 297 306 274 281 316 192 243 322 302 301 280 299 248 263 255 251 231 241 263 261 225 234 269 234 238 229 229 226 221 215 234 241 245
315 315 318 320 321 324 329 327 325 322 314 304 286 221 217 36 318 269 185 198 195 197 227 272 294 284 303 313 310 325 279 270 275 258 195 242 252 254 253 262 265 279 277 262 252 219 228 233 235 235 226 224 237 239
313 313 315 318 320 322 326 325 331 324 296 342 339 336 339 315 250 219 251 235 178 228 198 234 260 318 168 286 295 148 252 277 261 189 239 239 249 253 206 219 235 246 252 256 253 249 249 247 236 284 258 217 269 233
310 312 314 315 318 319 320 324 339 330 342 323 306 284 270 243 234 274 278 224 227 278 331 316 349 303 309 344 265 188 253 257 254 146 250 269 265 263 175 206 234 252 256 254 256 254 254 258 264 234 213 249 203 230
308 310 310 311 315 314 308 326 331 302 285 203 227 228 229 253 349 263 323 328 329 339 314 308 321 293 196 254 269 283 238 242 330 247 249 234 311 181 207 231 256 258 262 264 272 277 276 268 257 238 230 307 316 336
307 309 307 309 311 305 316 325 328 324 256 253 273 312 264 238 302 336 321 320 335 317 304 314 308 293 225 260 330 250 300 294 256 236 248 356 352 254 270 325 304 288 272 260 270 272 273 277 272 256 225 211 179 181
307 307 301 302 319 328 323 321 313 241 269 260 268 247 243 349 329 326 326 316 325 326 316 304 291 285 278 220 235 265 250 263 256 295 50 359 351 344 344 340 333 340 340 316 270 270 274 269 266 267 251 184 256 238
312 302 241 321 347 328 319 313 249 238 240 247 241 263 291 311 342 340 337 329 347 329 305 318 318 305 254 201 215 221 247 338 357 340 338 342 332 321 314 304 293 299 296 292 296 280 281 272 266 270 270 262 219 215
302 248 3 355 341 317 303 274 273 238 267 250 254 270 295 320 339 336 328 342 4 306 355 345 328 303 335 315 332 15 356 303 316 317 326 317 316 319 317 303 288 279 255 257 277 266 267 267 278 293 268 253 251 244
270 305 328 337 338 301 295 233 274 271 259 259 308 329 337 321 324 337 340 351 322 348 348 320 5 355 10 341 313 299 295 299 312 316 306 315 316 311 325 324 301 287 267 257 263 265 264 266 271 265 261 235 208 215
297 300 303 307 307 301 287 276 282 281 287 332 307 297 316 303 307 332 334 12 354 356 13 45 40 5 287 267 271 289 315 349 324 329 313 315 326 322 319 322 320 311 271 262 270 260 273 303 296 231 221 187 229 240
282 279 281 266 219 259 260 240 199 275 282 334 299 283 327 310 304 304 48 357 45 58 54 59 238 268 283 332 357 327 332 311 327 325 334 344 344 330 337 332 323 332 357 335 305 327 273 244 200 220 253 243 218 212
283 328 242 222 221 219 286 294 247 261 306 282 305 318 314 306 308 55 61 63 60 35 317 290 326 326 345 6 339 336 358 351 329 321 346 346 335 330 317 328 342 344 339 319 307 327 301 278 299 273 177 218 256 228
274 336 283 197 265 243 251 240 276 327 274 288 304 309 297 293 6 35 90 46 79 7 0 303 316 328 356 347 348 24 4 349 344 341 349 333 330 337 341 338 343 344 353 333 326 332 321 325 7 314 282 287 269 241
286 218 225 255 258 248 258 265 255 252 263 298 333 293 295 307 77 91 91 39 347 211 287 307 297 335 5 5 6 10 3 353 347 343 359 346 350 340 350 353 11 1 0 351 341 348 342 334 325 298 355 219 247 284
134 258 244 238 206 252 264 241 208 259 259 269 284 318 295 333 49 76 92 210 11 33 314 333 333 4 354 18 9 16 353 360 353 348 9 346 345 347 355 5 6 11 358 351 345 347 348 344 330 331 343 27 45 68
245 242 189 256 258 235 244 237 228 240 269 299 308 276 268 26 74 155 5 56 29 301 13 346 354 6 12 13 354 20 7 6 356 348 353 351 351 353 3 3 4 9 352 346 343 342 356 10 47 41 39 66 70 68
240 223 197 239 207 218 239 266 241 259 305 296 260 290 312 226 206 179 211 326 23 30 11 305 352 19 12 2 23 11 5 3 357 2 5 351 2 8 2 1 357 354 354 347 28 40 42 48 51 54 56 58 65 78
245 244 200 238 288 291 274 271 270 273 287 261 248 283 272 249 204 152 138 116 44 112 185 341 16 2 4 37 56 28 17 13 11 351 331 336 28 29 16 20 14 355 350 8 33 45 56 62 67 72 75 74 72 77
237 279 253 240 248 254 278 286 287 259 239 220 61 256 276 293 5 77 52 123 118 144 124 144 187 337 32 26 82 93 56 39 26 20 247 62 46 36 25 28 33 13 36 28 41 48 52 57 67 77 85 86 85 81
224 237 270 270 259 250 252 230 241 241 253 250 194 220 248 282 52 140 162 161 161 210 217 213 98 144 158 110 65 61 77 61 43 40 37 40 31 29 35 42 45 40 48 73 51 48 64 76 84 83 81 80 82 92
239 219 203 238 231 222 231 225 252 263 271 269 285 286 280 194 165 147 182 176 194 213 143 114 102 21 49 18 89 77 54 73 76 46 42 39 29 16 45 72 113 122 75 72 98 112 135 94 102 96 103 106 103 84
225 199 217 238 259 245 245 259 254 246 264 263 263 268 277 132 164 184 222 220 205 161 177 162 146 123 106 89 65 71 87 62 61 76 328 9 50 49 43 41 45 45 49 50 53 59 68 68 71 74 76 77 72 71
200 200 216 237 241 237 229 251 252 253 254 245 243 242 222 238 248 151 196 204 202 188 145 190 155 133 131 116 106 93 34 71 51 34 9 17 42 47 56 58 63 61 61 59 61 67 71 74 78 81 81 77 75 74
232 220 214 238 265 262 245 236 244 251 249 242 251 240 226 247 270 125 156 204 205 172 161 174 129 129 122 115 111 109 95 88 87 64 46 26 10 353 36 63 63 61 64 65 71 76 73 74 73 74 75 72 70 67